Regional Weather Roundup
Issued by NWS

Home | Current Version | Previous Version | Graphics & Text | Print | Product List | Glossary On
Versions: 1 2 3 4 5 6 7 8 9 10 11 12 13 14 15 16 17 18 19 20 21 22 23 24 25 26 27 28 29 30 31 32 33 34 35 36 37 38 39 40 41 42 43 44 45 46 47 48 49 50
000
ASUS45 KBOI 260610
RWRID
WEATHER ROUNDUP FOR IDAHO
NATIONAL WEATHER SERVICE BOISE ID
1200 AM MDT THU MAR 26 2015

NOTE: "FAIR" INDICATES FEW OR NO CLOUDS BELOW 12000 FEET
WITH NO SIGNIFICANT WEATHER AND/OR OBSTRUCTIONS TO VISIBILITY

IDZ012-014-260700-
SOUTHWEST IDAHO


CITY           SKY/WX    TMP DP  RH WIND       PRES   REMARKS
BOISE          FAIR      42  34  73 CALM      30.41R
CALDWELL       FAIR      43  30  61 W5        30.43R
MOUNTAIN HOME  FAIR      38  33  81 NW6       30.39F WCI  34
$$

IDZ016-017-260700-
SOUTHCENTRAL IDAHO


CITY           SKY/WX    TMP DP  RH WIND       PRES   REMARKS
BURLEY         FAIR      43  30  60 SW13      30.38R
JEROME         FAIR      41  32  70 SW8       30.39S
TWIN FALLS     FAIR      40  30  67 S13       30.40S WCI  32
$$

IDZ019>023-260700-
SOUTHEAST IDAHO


CITY           SKY/WX    TMP DP  RH WIND       PRES   REMARKS
IDAHO FALLS    FAIR      40  21  46 SW16      30.34F WCI  31
POCATELLO      FAIR      42  27  55 SW14      30.38S
REXBURG        CLOUDY    40  21  46 S13       30.33S WCI  32
$$

IDZ006-010-011-018-031-032-260700-
CENTRAL IDAHO MOUNTAINS


CITY           SKY/WX    TMP DP  RH WIND       PRES   REMARKS
MCCALL         MOCLDY    32  31  96 NE3       30.40R
HAILEY         FAIR      37  28  70 NW8       30.37S WCI  31
STANLEY          N/A     30  25  81 CALM      30.42R
SALMON         CLOUDY    45  27  49 CALM      30.35R
CHALLIS        FAIR      40  27  59 SE6       30.36R
$$

IDZ002-004-006-007-026-260700-
NORTHERN IDAHO


CITY           SKY/WX    TMP DP  RH WIND       PRES   REMARKS
LEWISTON       CLOUDY    51  43  74 S13       30.34F
LOWELL           N/A     45  43  93 CALM      30.43R
COEUR D`ALENE  CLOUDY    45  43  93 S9        30.31S
MULLAN PASS    SNOW      32  32 100 VRB7      30.29R VSB 1/4 WCI  26
$$


USA.gov is the U.S. government's official web portal to all federal, state and local government web resources and services.